Location: Newark
(45.5000°N, 11.4167°E)
Time: 20:17:50
(UTC+00:00)

Explorer 11/Cluster Stage 4 - Pass Details

Date: 26 August 2019
Orbit: 467 x 1259 km, 28.8° (Epoch: 22 October)

Event Time Altitude Azimuth Distance (km) Brightness Sun altitude
Rises 09:02:57 0° 228° (SW) 3,974 10.1 44.9°
Reaches altitude 10° 09:06:28 10° 213° (SSW) 3,110 9.8 45.3°
Maximum altitude 09:11:59 21° 168° (SSE) 2,483 10.1 46.0°
Drops below altitude 10° 09:17:41 10° 125° (SE) 3,231 10.7 46.8°
Sets 09:21:25 0° 110° (ESE) 4,173 10.9 47.2°
